Aérodrome :
LOGIN :

S'inscrire | Disclaimer

   EN    FR    IT 

 










Légende :    VFR   VFR Marginal   IFR   IFR Intensif   IFR Très Intensif
Visi : 
Plafond : 
>= 8 km
>= 3000ft
5 à 8 km
1000 à 3000 ft
1500m à 5 km
500 à 1000 ft
800 à 1500m
200 à 500 ft
< 800m
< 200 ft
Symboles :   Orages  Brouillard  Fortes neiges  Fortes précipitations  Vent > 20 kt
SIGMETs :   Divers  Orages  Givrage  Turbulence  Onde Orograph.  Cendres Volcan.







- Altitude de l'aérodrome : 28 ft
- Code IATA : SOZ
- Voir les cartes d'approche


LFKS - Solenzara

DERNIER METAR :
  • 211300Z AUTO 04017KT CAVOK 15/05 Q1025

METARs EXPIRÉS :
  • 211230Z AUTO 04019KT CAVOK 15/05 Q1026
  • 211200Z AUTO 04018KT CAVOK 15/05 Q1026
  • 211130Z AUTO 05019KT CAVOK 15/05 Q1026
  • 211100Z AUTO 04018KT CAVOK 14/05 Q1026
  • 211030Z AUTO 04019KT 9999 SCT092 15/05 Q1026

TAF TAF LFKS
Valide du 21 à 09h jusqu'au 22 à 09h UTC


210800Z 2109/2209 02010KT CAVOK
TEMPO 2109/2115 04015G25KT
Pas de NOTAMs connus pour ce terrain.



MET'MAP, la Météo Aéronautique d'un coup d'oeil ! - Copyright ORBIFLY Décembre 2007 - Disclaimer

ORBIFLY MET'MAP TEAM :

Programmation & Développement : Alexandra Zaïnal
Conception & Développement : Baudouin d'Aumeries
Co-Programmation & Développement : Marc-Olivier Méhu
Soutien technique & logistique : Manuel Goepfert

Contact : metmap@orbifly.com




SOURCES & CREDITS :

   NOAA